Location: Cazarilh
(42.9578°N, 0.5819°E)
Time: 23:52:35
(UTC+00:00)

Cosmos 1703 Rocket - Pass Details

Date: 11 December 2019
Orbit: 604 x 635 km, 82.5° (Epoch: 24 January)

Event Time Altitude Azimuth Distance (km) Brightness Sun altitude
Exits shadow 04:40:23 48° 60° (ENE) 821 4.4 -28.0°
Maximum altitude 04:40:45 49° 78° (ENE) 804 4.4 -27.9°
Drops below altitude 10° 04:45:01 10° 154° (SSE) 1,979 6.5 -27.1°
Sets 04:47:17 0° 160° (SSE) 2,875 7.3 -26.7°
